| time (UTC) | temp C | wind direction | speed KPH | gust KPH | rain 1hr cm | rain 24hr cm | rain mn cm | humidity % | barometer mb |
| 20260508123027 | 20 | 92 | 4.8 | 14.5 | 0.00 | 0.56 | 0.03 | 73 | 1011.9 |
| 20260508122104 | 21 | 68 | 4.8 | 12.9 | 0.00 | 0.56 | 0.03 | 71 | 1011.9 |
| 20260508121022 | 21 | 69 | 3.2 | 6.4 | 0.00 | 0.56 | 0.03 | 72 | 1012.0 |
| 20260508120018 | 20 | 59 | 4.8 | 11.3 | 0.00 | 0.56 | 0.03 | 75 | 1012.2 |
| 20260508115015 | 19 | 64 | 3.2 | 9.7 | 0.00 | 0.56 | 0.03 | 79 | 1012.2 |
| 20260508114112 | 18 | 77 | 3.2 | 11.3 | 0.00 | 0.56 | 0.03 | 81 | 1012.3 |
| 20260508113110 | 18 | 101 | 4.8 | 14.5 | 0.00 | 0.56 | 0.03 | 78 | 1012.1 |
| 20260508112127 | 18 | 52 | 1.6 | 6.4 | 0.00 | 0.56 | 0.03 | 78 | 1012.2 |
| 20260508111104 | 18 | 77 | 1.6 | 6.4 | 0.00 | 0.56 | 0.03 | 78 | 1012.4 |
| 20260508110101 | 18 | 45 | 3.2 | 9.7 | 0.00 | 0.56 | 0.03 | 78 | 1012.4 |
| 20260508105058 | 19 | 81 | 4.8 | 17.7 | 0.00 | 0.56 | 0.03 | 76 | 1012.5 |
| 20260508104055 | 19 | 86 | 6.4 | 12.9 | 0.00 | 0.56 | 0.03 | 74 | 1012.3 |
| 20260508103052 | 19 | 86 | 3.2 | 11.3 | 0.00 | 0.56 | 0.03 | 75 | 1012.3 |
| 20260508102049 | 18 | 64 | 4.8 | 11.3 | 0.00 | 0.56 | 0.03 | 76 | 1012.4 |
| 20260508101106 | 19 | 79 | 3.2 | 9.7 | 0.00 | 0.56 | 0.03 | 75 | 1012.4 |
| 20260508100043 | 19 | 62 | 4.8 | 9.7 | 0.00 | 0.56 | 0.03 | 76 | 1012.4 |
| 20260508095121 | 18 | 103 | 6.4 | 17.7 | 0.00 | 0.56 | 0.03 | 77 | 1012.4 |
| 20260508094037 | 18 | 68 | 4.8 | 12.9 | 0.00 | 0.56 | 0.03 | 78 | 1012.6 |
| 20260508093034 | 18 | 60 | 4.8 | 12.9 | 0.00 | 0.56 | 0.03 | 81 | 1012.5 |
| 20260508092031 | 17 | 64 | 4.8 | 11.3 | 0.00 | 0.56 | 0.03 | 83 | 1012.4 |
| 20260508091028 | 17 | 49 | 3.2 | 9.7 | 0.00 | 0.56 | 0.03 | 84 | 1012.5 |
| 20260508090025 | 17 | 98 | 3.2 | 9.7 | 0.00 | 0.56 | 0.03 | 84 | 1012.6 |
| 20260508085022 | 17 | 52 | 3.2 | 6.4 | 0.00 | 0.56 | 0.03 | 84 | 1012.4 |
| 20260508084018 | 17 | 52 | 1.6 | 6.4 | 0.00 | 0.56 | 0.03 | 86 | 1012.4 |
| 20260508083036 | 16 | 49 | 3.2 | 14.5 | 0.00 | 0.56 | 0.03 | 88 | 1012.3 |
| 20260508082113 | 16 | 45 | 6.4 | 12.9 | 0.00 | 0.56 | 0.03 | 89 | 1012.4 |
| 20260508081110 | 15 | 45 | 3.2 | 11.3 | 0.00 | 0.56 | 0.03 | 91 | 1012.4 |
| 20260508080107 | 15 | 42 | 3.2 | 6.4 | 0.00 | 0.56 | 0.03 | 92 | 1012.3 |
| 20260508075124 | 15 | 31 | 3.2 | 12.9 | 0.00 | 0.56 | 0.03 | 95 | 1012.2 |
| 20260508074101 | 15 | 45 | 4.8 | 9.7 | 0.00 | 0.56 | 0.03 | 96 | 1012.0 |
| 20260508073058 | 15 | 38 | 3.2 | 11.3 | 0.00 | 0.56 | 0.03 | 97 | 1012.1 |
| 20260508072055 | 14 | 87 | 3.2 | 11.3 | 0.00 | 0.56 | 0.03 | 98 | 1012.1 |
| 20260508071052 | 14 | 45 | 3.2 | 6.4 | 0.00 | 0.56 | 0.03 | 99 | 1011.9 |
| 20260508070109 | 14 | 45 | 1.6 | 6.4 | 0.00 | 0.56 | 0.03 | 99 | 1011.9 |
| 20260508065046 | 13 | 45 | 1.6 | 6.4 | 0.00 | 0.56 | 0.03 | 99 | 1011.7 |
| 20260508064043 | 13 | 45 | 0.0 | 3.2 | 0.00 | 0.56 | 0.03 | 99 | 1011.7 |
| 20260508063040 | 13 | 45 | 0.0 | 3.2 | 0.00 | 0.56 | 0.03 | 99 | 1011.6 |
| 20260508062037 | 13 | 0.0 | 3.2 | 0.00 | 0.56 | 0.03 | 99 | 1011.7 | |
| 20260508061034 | 13 | 45 | 0.0 | 3.2 | 0.00 | 0.56 | 0.03 | 99 | 1011.5 |
| 20260508060031 | 13 | 45 | 0.0 | 3.2 | 0.00 | 0.56 | 0.03 | 99 | 1011.3 |
| 20260508055028 | 13 | 0.0 | 3.2 | 0.00 | 0.56 | 0.03 | 99 | 1011.4 | |
| 20260508054026 | 13 | 0.0 | 0.0 | 0.00 | 0.56 | 0.03 | 99 | 1011.4 | |
| 20260508053104 | 13 | 0.0 | 0.0 | 0.00 | 0.56 | 0.03 | 99 | 1011.2 | |
| 20260508052019 | 13 | 0.0 | 0.0 | 0.00 | 0.56 | 0.03 | 99 | 1010.8 | |
| 20260508051016 | 12 | 23 | 0.0 | 3.2 | 0.00 | 0.56 | 0.03 | 99 | 1010.4 |
| 20260508050113 | 12 | 0.0 | 0.0 | 0.00 | 0.56 | 0.03 | 99 | 1010.2 | |
| 20260508045110 | 12 | 0.0 | 3.2 | 0.00 | 0.56 | 0.03 | 99 | 1010.0 | |
| 20260508044107 | 12 | 0.0 | 0.0 | 0.00 | 0.56 | 0.03 | 99 | 1010.0 | |
| 20260508043104 | 12 | 0.0 | 3.2 | 0.00 | 0.56 | 0.03 | 99 | 1009.9 | |
| 20260508042101 | 13 | 0.0 | 3.2 | 0.00 | 0.56 | 0.03 | 99 | 1010.1 | |
| 20260508041058 | 13 | 0.0 | 0.0 | 0.00 | 0.56 | 0.03 | 99 | 1010.0 | |
| 20260508040116 | 13 | 23 | 0.0 | 3.2 | 0.00 | 0.56 | 0.03 | 99 | 1009.9 |
| 20260508035052 | 13 | 0.0 | 0.0 | 0.00 | 0.56 | 0.03 | 99 | 1009.9 | |
| 20260508034049 | 13 | 23 | 0.0 | 3.2 | 0.00 | 0.56 | 0.03 | 99 | 1010.1 |
| 20260508033046 | 13 | 0.0 | 0.0 | 0.00 | 0.56 | 0.03 | 99 | 1010.3 | |
| 20260508032043 | 13 | 0.0 | 0.0 | 0.00 | 0.56 | 0.03 | 99 | 1010.3 | |
| 20260508031100 | 13 | 0.0 | 0.0 | 0.00 | 0.56 | 0.03 | 99 | 1010.3 | |
| 20260508030038 | 13 | 0.0 | 0.0 | 0.00 | 0.56 | 0.03 | 99 | 1010.3 | |
| 20260508025034 | 13 | 0.0 | 0.0 | 0.00 | 0.56 | 0.03 | 99 | 1010.3 | |
| 20260508024031 | 13 | 0.0 | 0.0 | 0.00 | 0.56 | 0.03 | 99 | 1010.4 | |
| 20260508023028 | 13 | 0.0 | 0.0 | 0.00 | 0.56 | 0.03 | 99 | 1010.3 | |
| 20260508022045 | 13 | 0.0 | 3.2 | 0.00 | 0.56 | 0.03 | 99 | 1010.3 | |
| 20260508021022 | 13 | 0.0 | 3.2 | 0.00 | 0.56 | 0.03 | 99 | 1010.3 | |
| 20260508020019 | 13 | 23 | 0.0 | 3.2 | 0.00 | 0.56 | 0.03 | 99 | 1010.1 |
| 20260508015057 | 13 | 30 | 0.0 | 3.2 | 0.00 | 0.56 | 0.03 | 99 | 1010.1 |
| 20260508014113 | 13 | 45 | 0.0 | 3.2 | 0.00 | 0.56 | 0.03 | 99 | 1010.3 |
| 20260508013151 | 13 | 45 | 0.0 | 3.2 | 0.00 | 0.56 | 0.03 | 99 | 1010.3 |
| 20260508012107 | 13 | 0.0 | 3.2 | 0.00 | 0.56 | 0.03 | 99 | 1010.4 | |
| 20260508011104 | 13 | 0.0 | 0.0 | 0.00 | 0.56 | 0.03 | 99 | 1010.4 | |
| 20260508010122 | 13 | 45 | 0.0 | 3.2 | 0.00 | 0.56 | 0.03 | 99 | 1010.5 |
| 20260508005058 | 13 | 0.0 | 0.0 | 0.00 | 0.56 | 0.03 | 99 | 1010.5 | |
| 20260508004055 | 13 | 45 | 0.0 | 3.2 | 0.03 | 0.56 | 0.03 | 99 | 1010.7 |
| 20260508003113 | 13 | 0.0 | 3.2 | 0.03 | 0.56 | 0.03 | 99 | 1010.8 | |
| 20260508002049 | 13 | 45 | 0.0 | 3.2 | 0.03 | 0.56 | 0.03 | 99 | 1011.0 |
| 20260508001107 | 13 | 45 | 0.0 | 3.2 | 0.03 | 0.56 | 0.03 | 99 | 1011.0 |
| 20260508000104 | 13 | 24 | 0.0 | 3.2 | 0.03 | 0.56 | 0.03 | 99 | 1011.1 |
| 20260507235101 | 13 | 0.0 | 3.2 | 0.03 | 0.56 | 0.03 | 99 | 1011.1 | |
| 20260507234037 | 13 | 338 | 0.0 | 3.2 | 0.00 | 0.53 | 0.00 | 99 | 1011.3 |
| 20260507233034 | 13 | 0.0 | 3.2 | 0.00 | 0.53 | 0.00 | 99 | 1011.6 | |
| 20260507232032 | 13 | 0.0 | 3.2 | 0.00 | 0.53 | 0.00 | 99 | 1011.6 | |
| 20260507231028 | 13 | 45 | 0.0 | 3.2 | 0.00 | 0.53 | 0.00 | 99 | 1011.6 |
| 20260507230026 | 13 | 248 | 0.0 | 9.7 | 0.00 | 0.53 | 0.00 | 99 | 1011.8 |
| 20260507225023 | 13 | 315 | 0.0 | 3.2 | 0.00 | 0.53 | 0.00 | 99 | 1011.9 |
| 20260507224020 | 13 | 0.0 | 0.0 | 0.00 | 0.53 | 0.00 | 99 | 1011.7 | |
| 20260507223017 | 13 | 0.0 | 3.2 | 0.00 | 0.53 | 0.00 | 99 | 1011.8 | |
| 20260507222113 | 13 | 0.0 | 3.2 | 0.00 | 0.53 | 0.00 | 99 | 1011.6 | |
| 20260507221110 | 13 | 0.0 | 3.2 | 0.00 | 0.53 | 0.00 | 99 | 1011.6 | |
| 20260507220107 | 13 | 0.0 | 0.0 | 0.00 | 0.53 | 0.00 | 99 | 1011.4 | |
| 20260507215104 | 13 | 0.0 | 3.2 | 0.03 | 0.53 | 0.53 | 99 | 1011.3 | |
| 20260507214102 | 13 | 0.0 | 3.2 | 0.03 | 0.53 | 0.53 | 99 | 1011.3 | |
| 20260507213058 | 13 | 315 | 0.0 | 3.2 | 0.03 | 0.53 | 0.53 | 99 | 1011.5 |
| 20260507212055 | 14 | 0.0 | 0.0 | 0.03 | 0.53 | 0.53 | 99 | 1011.5 | |
| 20260507211053 | 14 | 0.0 | 0.0 | 0.03 | 0.53 | 0.53 | 99 | 1011.7 | |
| 20260507210049 | 14 | 315 | 1.6 | 3.2 | 0.03 | 0.53 | 0.53 | 99 | 1011.6 |
| 20260507205046 | 14 | 315 | 0.0 | 3.2 | 0.00 | 0.51 | 0.51 | 99 | 1011.6 |
| 20260507204043 | 14 | 0.0 | 0.0 | 0.03 | 0.51 | 0.51 | 99 | 1011.6 | |
| 20260507203041 | 14 | 315 | 1.6 | 3.2 | 0.03 | 0.51 | 0.51 | 99 | 1011.6 |
| 20260507202037 | 14 | 315 | 1.6 | 3.2 | 0.03 | 0.51 | 0.51 | 99 | 1011.5 |
| 20260507201035 | 14 | 0 | 3.2 | 6.4 | 0.03 | 0.51 | 0.51 | 99 | 1011.3 |
| 20260507200031 | 14 | 45 | 1.6 | 3.2 | 0.03 | 0.51 | 0.51 | 99 | 1011.2 |
| 20260507195049 | 14 | 0.0 | 0.0 | 0.05 | 0.51 | 0.51 | 99 | 1011.1 | |
| 20260507194026 | 14 | 90 | 0.0 | 3.2 | 0.03 | 0.48 | 0.48 | 99 | 1011.0 |
| 20260507193023 | 15 | 60 | 1.6 | 6.4 | 0.05 | 0.48 | 0.48 | 99 | 1010.8 |
| 20260507192020 | 15 | 0.0 | 0.0 | 0.05 | 0.48 | 0.48 | 99 | 1010.4 | |
| 20260507191017 | 15 | 0.0 | 3.2 | 0.05 | 0.48 | 0.48 | 99 | 1010.5 | |
| 20260507190114 | 15 | 0.0 | 3.2 | 0.05 | 0.48 | 0.48 | 99 | 1010.5 | |
| 20260507185111 | 15 | 0.0 | 0.0 | 0.05 | 0.46 | 0.46 | 99 | 1010.4 | |
| 20260507184228 | 15 | 0.0 | 0.0 | 0.05 | 0.46 | 0.46 | 98 | 1010.3 | |
| 20260507183105 | 15 | 45 | 0.0 | 3.2 | 0.03 | 0.43 | 0.43 | 98 | 1010.1 |
| 20260507182102 | 15 | 45 | 0.0 | 3.2 | 0.03 | 0.43 | 0.43 | 98 | 1009.8 |
| 20260507181120 | 15 | 0.0 | 0.0 | 0.05 | 0.43 | 0.43 | 98 | 1009.8 | |
| 20260507180056 | 15 | 30 | 0.0 | 6.4 | 0.15 | 0.43 | 0.43 | 98 | 1009.8 |
| 20260507175053 | 15 | 45 | 0.0 | 3.2 | 0.15 | 0.38 | 0.38 | 98 | 1009.6 |
| 20260507174050 | 15 | 45 | 0.0 | 6.4 | 0.23 | 0.38 | 0.38 | 98 | 1009.6 |
| 20260507173047 | 15 | 45 | 1.6 | 6.4 | 0.28 | 0.38 | 0.38 | 97 | 1009.6 |
| 20260507172044 | 15 | 30 | 1.6 | 3.2 | 0.33 | 0.38 | 0.38 | 97 | 1009.9 |
| 20260507171041 | 15 | 38 | 1.6 | 6.4 | 0.30 | 0.36 | 0.36 | 97 | 1009.9 |
| 20260507170038 | 15 | 45 | 0.0 | 3.2 | 0.20 | 0.28 | 0.28 | 97 | 1010.0 |
| 20260507165055 | 15 | 45 | 1.6 | 6.4 | 0.20 | 0.23 | 0.23 | 96 | 1010.0 |
| 20260507164052 | 15 | 66 | 1.6 | 6.4 | 0.15 | 0.15 | 0.15 | 95 | 1010.1 |
| 20260507163028 | 15 | 45 | 1.6 | 6.4 | 0.13 | 0.13 | 0.13 | 95 | 1010.1 |
| 20260507162025 | 16 | 50 | 3.2 | 6.4 | 0.05 | 0.05 | 0.05 | 94 | 1009.9 |
| 20260507161042 | 16 | 70 | 3.2 | 12.9 | 0.05 | 0.05 | 0.05 | 93 | 1009.8 |
| 20260507160020 | 16 | 50 | 3.2 | 6.4 | 0.05 | 0.05 | 0.05 | 92 | 1009.8 |
| 20260507155019 | 17 | 61 | 4.8 | 12.9 | 0.03 | 0.03 | 0.03 | 91 | 1009.8 |
| 20260507154114 | 17 | 52 | 1.6 | 6.4 | 0.00 | 0.00 | 0.00 | 90 | 1009.8 |
| 20260507153131 | 17 | 52 | 3.2 | 6.4 | 0.00 | 0.03 | 0.00 | 89 | 1009.7 |
| 20260507152108 | 17 | 76 | 6.4 | 12.9 | 0.00 | 0.03 | 0.00 | 83 | 1009.6 |
| 20260507151105 | 18 | 106 | 9.7 | 24.1 | 0.00 | 0.03 | 0.00 | 75 | 1009.5 |
| 20260507145059 | 19 | 45 | 8.0 | 20.9 | 0.00 | 0.03 | 0.00 | 71 | 1009.4 |
| 20260507144056 | 19 | 16 | 8.0 | 24.1 | 0.00 | 0.05 | 0.00 | 72 | 1009.6 |
| 20260507143053 | 20 | 45 | 6.4 | 12.9 | 0.00 | 0.18 | 0.00 | 71 | 1009.5 |
| 20260507142050 | 20 | 56 | 6.4 | 24.1 | 0.00 | 0.43 | 0.00 | 69 | 1009.7 |
| 20260507141047 | 20 | 79 | 6.4 | 17.7 | 0.00 | 0.76 | 0.00 | 69 | 1009.8 |
| 20260507140044 | 20 | 85 | 6.4 | 14.5 | 0.00 | 0.89 | 0.00 | 68 | 1009.8 |
| 20260507135041 | 20 | 51 | 8.0 | 20.9 | 0.00 | 1.68 | 0.00 | 67 | 1009.9 |
| 20260507134038 | 21 | 103 | 4.8 | 12.9 | 0.00 | 2.11 | 0.00 | 66 | 1009.8 |
| 20260507133035 | 21 | 56 | 8.0 | 17.7 | 0.00 | 2.39 | 0.00 | 66 | 1009.7 |
| 20260507132032 | 21 | 49 | 4.8 | 14.5 | 0.00 | 2.49 | 0.00 | 66 | 1010.0 |
| 20260507131049 | 21 | 42 | 4.8 | 11.3 | 0.00 | 2.49 | 0.00 | 67 | 1010.2 |
| 20260507130026 | 20 | 82 | 4.8 | 11.3 | 0.00 | 2.49 | 0.00 | 68 | 1010.3 |
| 20260507125023 | 20 | 64 | 8.0 | 20.9 | 0.00 | 2.49 | 0.00 | 68 | 1010.4 |
| 20260507124020 | 20 | 46 | 8.0 | 17.7 | 0.00 | 2.49 | 0.00 | 68 | 1010.5 |